When you browse on this site, cookies collect data to enhance your experience and personalize the content and advertising you see.
Visit our Privacy Policy to learn more. By continuing to use the site, you agree to this use of cookies and data.
  • In Romania
  • List of Countries
  • For 7 days
  • Water Temperature
  • Satellite Maps
  • Weather Map
  • Weather Widgets
  • user-avatar
    Login

    Hourly Weather Haro

    Today, 18 April, Thursday

    Time Temperature Precipitation Wind Pressure Humidity
    00:00 +13°C° 0 mm 4 mps 716 mmHg 79%
    01:00 +13°C° 0.5 mm 4 mps 716 mmHg 82%
    02:00 +12°C° 0.5 mm 4 mps 716 mmHg 85%
    03:00 +12°C° 0.5 mm 4 mps 716 mmHg 88%
    04:00 +12°C° 0.8 mm 4 mps 717 mmHg 90%
    05:00 +11°C° 0.8 mm 3 mps 717 mmHg 91%
    06:00 +11°C° 0.8 mm 3 mps 717 mmHg 93%
    07:00 +11°C° 1.3 mm 3 mps 717 mmHg 93%
    08:00 +11°C° 1.3 mm 3 mps 717 mmHg 92%
    09:00 +11°C° 1.3 mm 3 mps 718 mmHg 92%
    10:00 +12°C° 0.6 mm 4 mps 718 mmHg 89%
    11:00 +12°C° 0.6 mm 4 mps 718 mmHg 87%
    12:00 +13°C° 0.6 mm 5 mps 718 mmHg 84%
    13:00 +13°C° 0.4 mm 5 mps 718 mmHg 80%
    14:00 +14°C° 0.4 mm 6 mps 717 mmHg 76%
    15:00 +14°C° 0.4 mm 6 mps 717 mmHg 72%
    16:00 +13°C° 0.9 mm 4 mps 717 mmHg 78%
    17:00 +12°C° 0.9 mm 3 mps 717 mmHg 84%
    18:00 +12°C° 0.9 mm 2 mps 717 mmHg 90%
    19:00 +12°C° 1.4 mm 2 mps 717 mmHg 92%
    20:00 +11°C° 1.4 mm 3 mps 717 mmHg 93%
    21:00 +11°C° 1.4 mm 3 mps 718 mmHg 95%
    22:00 +10°C° 0.6 mm 4 mps 718 mmHg 94%
    23:00 +10°C° 0.6 mm 4 mps 718 mmHg 93%

    Tomorrow, 19 April, Friday

    Time Temperature Precipitation Wind Pressure Humidity
    00:00 +9°C° 0.6 mm 5 mps 718 mmHg 91%
    01:00 +10°C° 0.3 mm 4 mps 718 mmHg 92%
    02:00 +10°C° 0.3 mm 4 mps 718 mmHg 92%
    03:00 +10°C° 0.3 mm 4 mps 718 mmHg 92%
    04:00 +10°C° 0.1 mm 4 mps 718 mmHg 92%
    05:00 +10°C° 0.1 mm 4 mps 719 mmHg 92%
    06:00 +10°C° 0.1 mm 4 mps 719 mmHg 92%
    07:00 +10°C° 0.2 mm 4 mps 719 mmHg 91%
    08:00 +10°C° 0.2 mm 4 mps 720 mmHg 90%
    09:00 +11°C° 0.2 mm 4 mps 720 mmHg 89%
    10:00 +12°C° 0.2 mm 4 mps 720 mmHg 83%
    11:00 +13°C° 0.2 mm 5 mps 721 mmHg 77%
    12:00 +15°C° 0.2 mm 5 mps 721 mmHg 71%
    13:00 +16°C° 0 mm 6 mps 721 mmHg 68%
    14:00 +17°C° 0 mm 6 mps 721 mmHg 66%
    15:00 +17°C° 0 mm 6 mps 721 mmHg 64%
    16:00 +17°C° 0 mm 5 mps 721 mmHg 66%
    17:00 +17°C° 0 mm 4 mps 721 mmHg 68%
    18:00 +17°C° 0 mm 4 mps 722 mmHg 70%
    19:00 +16°C° 0 mm 3 mps 722 mmHg 70%
    20:00 +14°C° 0 mm 3 mps 723 mmHg 70%
    21:00 +12°C° 0 mm 3 mps 723 mmHg 70%
    22:00 +13°C° 0 mm 2 mps 723 mmHg 72%
    23:00 +12°C° 0 mm 2 mps 723 mmHg 74%

    Day after tomorrow, 20 April, Saturday

    Time Temperature Precipitation Wind Pressure Humidity
    00:00 +12°C° 0 mm 2 mps 723 mmHg 76%
    01:00 +12°C° 0 mm 1 mps 723 mmHg 77%
    02:00 +11°C° 0 mm 1 mps 723 mmHg 78%
    03:00 +11°C° 0 mm 1 mps 723 mmHg 79%
    04:00 +11°C° 0 mm 1 mps 723 mmHg 79%
    05:00 +11°C° 0 mm 1 mps 723 mmHg 79%
    06:00 +10°C° 0 mm 0 mps 723 mmHg 78%
    07:00 +13°C° 0 mm 1 mps 723 mmHg 71%
    08:00 +15°C° 0 mm 1 mps 723 mmHg 63%
    09:00 +17°C° 0 mm 2 mps 723 mmHg 56%
    10:00 +18°C° 0 mm 2 mps 723 mmHg 54%
    11:00 +19°C° 0 mm 2 mps 723 mmHg 51%
    12:00 +20°C° 0 mm 2 mps 723 mmHg 49%
    13:00 +20°C° 0 mm 3 mps 723 mmHg 50%
    14:00 +20°C° 0 mm 3 mps 722 mmHg 51%
    15:00 +21°C° 0 mm 3 mps 722 mmHg 51%
    16:00 +19°C° 0 mm 3 mps 722 mmHg 58%
    17:00 +18°C° 0 mm 3 mps 722 mmHg 65%
    18:00 +16°C° 0 mm 3 mps 721 mmHg 72%
    19:00 +14°C° 0.1 mm 2 mps 722 mmHg 78%
    20:00 +13°C° 0.1 mm 2 mps 722 mmHg 84%
    21:00 +11°C° 0.1 mm 1 mps 722 mmHg 90%
    22:00 +11°C° 0.2 mm 1 mps 722 mmHg 89%
    23:00 +11°C° 0.2 mm 1 mps 722 mmHg 89%

    21 April, Sunday

    Time Temperature Precipitation Wind Pressure Humidity
    00:00 +11°C° 0.2 mm 1 mps 722 mmHg 88%
    01:00 +11°C° 0 mm 1 mps 722 mmHg 90%
    02:00 +10°C° 0 mm 1 mps 721 mmHg 92%
    03:00 +10°C° 0 mm 1 mps 721 mmHg 93%
    04:00 +10°C° 0 mm 1 mps 720 mmHg 93%
    05:00 +10°C° 0 mm 1 mps 720 mmHg 92%
    06:00 +9°C° 0 mm 0 mps 720 mmHg 92%
    07:00 +11°C° 0 mm 1 mps 720 mmHg 84%
    08:00 +12°C° 0 mm 1 mps 720 mmHg 76%
    09:00 +14°C° 0 mm 1 mps 720 mmHg 69%
    10:00 +14°C° 0 mm 2 mps 720 mmHg 67%
    11:00 +14°C° 0 mm 2 mps 719 mmHg 66%
    12:00 +15°C° 0 mm 2 mps 719 mmHg 64%
    13:00 +16°C° 0 mm 3 mps 719 mmHg 61%
    14:00 +16°C° 0 mm 3 mps 718 mmHg 59%
    15:00 +17°C° 0 mm 3 mps 718 mmHg 56%
    16:00 +16°C° 0 mm 3 mps 718 mmHg 61%
    17:00 +16°C° 0 mm 2 mps 718 mmHg 65%
    18:00 +15°C° 0 mm 2 mps 717 mmHg 70%
    19:00 +14°C° 0 mm 2 mps 717 mmHg 75%
    20:00 +12°C° 0 mm 1 mps 718 mmHg 80%
    21:00 +11°C° 0 mm 1 mps 718 mmHg 85%
    22:00 +10°C° 0 mm 1 mps 717 mmHg 87%
    23:00 +9°C° 0 mm 0 mps 717 mmHg 89%

    22 April, Monday

    Time Temperature Precipitation Wind Pressure Humidity
    00:00 +9°C° 0 mm 0 mps 717 mmHg 90%
    01:00 +8°C° 0 mm 0 mps 716 mmHg 90%
    02:00 +8°C° 0 mm 0 mps 716 mmHg 91%
    03:00 +8°C° 0 mm 0 mps 715 mmHg 91%
    04:00 +8°C° 0 mm 0 mps 715 mmHg 91%
    05:00 +8°C° 0 mm 0 mps 715 mmHg 90%
    06:00 +8°C° 0 mm 0 mps 714 mmHg 90%
    07:00 +10°C° 0 mm 0 mps 714 mmHg 82%
    08:00 +12°C° 0 mm 0 mps 714 mmHg 73%
    09:00 +14°C° 0 mm 0 mps 714 mmHg 65%
    10:00 +18°C° 0 mm 1 mps 714 mmHg 60%
    11:00 +19°C° 0 mm 1 mps 713 mmHg 56%
    12:00 +20°C° 0 mm 1 mps 713 mmHg 52%
    13:00 +20°C° 0.2 mm 1 mps 712 mmHg 52%
    14:00 +19°C° 0.2 mm 2 mps 712 mmHg 52%
    15:00 +19°C° 0.2 mm 2 mps 711 mmHg 52%
    16:00 +18°C° 0.5 mm 2 mps 711 mmHg 58%
    17:00 +18°C° 0.5 mm 2 mps 711 mmHg 64%
    18:00 +17°C° 0.5 mm 2 mps 711 mmHg 70%
    19:00 +15°C° 0.1 mm 2 mps 711 mmHg 73%
    20:00 +14°C° 0.1 mm 2 mps 711 mmHg 76%
    21:00 +12°C° 0.1 mm 2 mps 711 mmHg 79%
    22:00 +12°C° 0 mm 2 mps 711 mmHg 81%
    23:00 +10°C° 0 mm 2 mps 711 mmHg 82%

    23 April, Tuesday

    Time Temperature Precipitation Wind Pressure Humidity
    00:00 +10°C° 0 mm 2 mps 710 mmHg 84%
    01:00 +9°C° 0 mm 2 mps 710 mmHg 85%
    02:00 +9°C° 0 mm 2 mps 710 mmHg 86%
    03:00 +9°C° 0 mm 2 mps 710 mmHg 87%
    04:00 +9°C° 0 mm 2 mps 710 mmHg 87%
    05:00 +9°C° 0 mm 2 mps 710 mmHg 87%
    06:00 +9°C° 0 mm 2 mps 710 mmHg 87%
    07:00 +12°C° 0 mm 2 mps 710 mmHg 80%
    08:00 +14°C° 0 mm 2 mps 710 mmHg 73%
    09:00 +16°C° 0 mm 2 mps 711 mmHg 66%
    10:00 +18°C° 0.1 mm 2 mps 711 mmHg 63%
    11:00 +19°C° 0.1 mm 3 mps 711 mmHg 59%
    12:00 +20°C° 0.1 mm 3 mps 711 mmHg 55%
    13:00 +21°C° 0.2 mm 3 mps 711 mmHg 54%
    14:00 +21°C° 0.2 mm 3 mps 711 mmHg 53%
    15:00 +22°C° 0.2 mm 3 mps 710 mmHg 51%
    16:00 +21°C° 0.2 mm 3 mps 711 mmHg 56%
    17:00 +20°C° 0.2 mm 3 mps 711 mmHg 60%
    18:00 +19°C° 0.2 mm 3 mps 711 mmHg 65%
    19:00 +18°C° 0 mm 3 mps 711 mmHg 68%
    20:00 +16°C° 0 mm 3 mps 712 mmHg 71%
    21:00 +14°C° 0 mm 3 mps 712 mmHg 73%
    22:00 +14°C° 0 mm 2 mps 713 mmHg 76%
    23:00 +14°C° 0 mm 2 mps 713 mmHg 78%
    Show more